Погода в Кимрах

Россия / Тверская область     56°52′24″N   37°21′20″E
темп.,
°C
ветер,
м/с
пор.,
м/с
влажн.,
%
обл.,
%
осадки,
мм/ч
давл.,
гПа
погр.,
м
8 мая, сб
сб800:00+5ююв3978100 0.0 1011171
03:00+6ююв41274100 0.0 1010330
06:00+7ююв31086100 0.4 1009453
09:00+7ююв61193100 1.4 10081092
12:00+8ююв51194100 2.7 1007863
15:00+8юв3997100 7.2 1005621
18:00+8зюз0098100 5.1 100345
21:00+7ссз3797100 10.2 1002367
9 мая, вс
вс900:00+6сз5995100 2.0 1002904
03:00+4сз61397100 5.3 1004864
06:00+3сз61496100 4.1 1006801
09:00+4сз61191100 4.5 10091053
12:00+8сз61172100 0.1 10121541
15:00+11ссз5104694 0.1 10142473
18:00+11сз595068 0.0 10162239
21:00+5зсз311705 0.0 1020224
10 мая, пн
пн1000:00+3сз39770 0.0 1023181
03:00+1сз23760 0.0 102651
06:00+3зсз12655 0.0 102850
09:00+10зюз12425 0.0 1029522
12:00+14юз233662 0.0 10291512
15:00+15з23359 0.0 10281808
18:00+13зюз115567 0.0 102811
21:00+10ююз226698 0.0 103015
11 мая, вт
вт1100:00+7ю22735 0.0 103010
03:00+6ю22725 0.0 103211
06:00+7ююв22695 0.0 103264
09:00+14юв24487 0.0 1032544
12:00+17вюв344228 0.0 10311186
15:00+19вюв344288 0.0 10291398
18:00+17вюв355156 0.0 1029628
21:00+10вюв22765 0.0 102938
12 мая, ср
ср1200:00+8вюв24795 0.0 102956
03:00+7вюв22824 0.0 102936
06:00+9всв27780 0.0 1029168
09:00+16в47560 0.0 1028517
12:00+21в46525 0.0 10261062
15:00+22вюв574920 0.0 10251893
18:00+19в487421 0.6 1025401
21:00+14всв3119118 0.8 1024247